TimeCDT,TemperatureF,Dew PointF,Humidity,Sea Level PressureIn,VisibilityMPH,Wind Direction,Wind SpeedMPH,Gust SpeedMPH,PrecipitationIn,Events,Conditions,WindDirDegrees,DateUTC
12:15 AM,37.6,31.6,79,30.12,10.0,Calm,Calm,-,N/A,,Clear,0,2013-10-27 05:15:00
12:35 AM,37.8,31.5,78,30.12,10.0,Calm,Calm,-,N/A,,Clear,0,2013-10-27 05:35:00
12:55 AM,35.6,31.1,84,30.11,10.0,Calm,Calm,-,N/A,,Clear,0,2013-10-27 05:55:00
1:15 AM,35.4,31.5,85,30.12,10.0,Calm,Calm,-,N/A,,Clear,0,2013-10-27 06:15:00
1:35 AM,35.8,31.3,84,30.11,10.0,Calm,Calm,-,N/A,,Clear,0,2013-10-27 06:35:00
1:55 AM,35.8,31.6,85,30.11,10.0,Calm,Calm,-,N/A,,Clear,0,2013-10-27 06:55:00
2:15 AM,34.5,30.9,87,30.10,10.0,Calm,Calm,-,N/A,,Clear,0,2013-10-27 07:15:00
2:35 AM,34.0,31.1,89,30.10,10.0,Calm,Calm,-,N/A,,Clear,0,2013-10-27 07:35:00
2:55 AM,33.4,30.9,90,30.10,10.0,Calm,Calm,-,N/A,,Clear,0,2013-10-27 07:55:00
3:15 AM,34.0,31.5,90,30.10,10.0,Calm,Calm,-,N/A,,Clear,0,2013-10-27 08:15:00
3:35 AM,32.9,30.0,89,30.10,10.0,Calm,Calm,-,N/A,,Clear,0,2013-10-27 08:35:00
3:55 AM,34.2,31.3,89,30.10,10.0,Calm,Calm,-,N/A,,Clear,0,2013-10-27 08:55:00
4:15 AM,33.8,31.5,91,30.10,10.0,Calm,Calm,-,N/A,,Clear,0,2013-10-27 09:15:00
4:35 AM,34.0,31.1,89,30.10,10.0,Calm,Calm,-,N/A,,Clear,0,2013-10-27 09:35:00
4:55 AM,33.8,31.1,90,30.10,10.0,Calm,Calm,-,N/A,,Clear,0,2013-10-27 09:55:00
5:15 AM,33.8,31.1,90,30.11,10.0,Calm,Calm,-,N/A,,Clear,0,2013-10-27 10:15:00
5:35 AM,32.7,30.9,93,30.10,10.0,Calm,Calm,-,N/A,,Clear,0,2013-10-27 10:35:00
5:55 AM,32.4,30.6,93,30.11,10.0,Calm,Calm,-,N/A,,Clear,0,2013-10-27 10:55:00
6:15 AM,32.0,29.8,92,30.11,10.0,Calm,Calm,-,N/A,,Clear,0,2013-10-27 11:15:00
6:35 AM,32.0,30.2,93,30.11,10.0,Calm,Calm,-,N/A,,Clear,0,2013-10-27 11:35:00
6:55 AM,32.0,30.2,93,30.11,10.0,Calm,Calm,-,N/A,,Clear,0,2013-10-27 11:55:00
7:15 AM,31.8,30.0,93,30.11,10.0,Calm,Calm,-,N/A,,Clear,0,2013-10-27 12:15:00
7:35 AM,31.6,30.0,94,30.11,10.0,Calm,Calm,-,N/A,,Clear,0,2013-10-27 12:35:00
7:55 AM,32.0,30.7,95,30.12,10.0,Calm,Calm,-,N/A,,Clear,0,2013-10-27 12:55:00
8:15 AM,34.7,32.4,91,30.13,10.0,Calm,Calm,-,N/A,,Clear,0,2013-10-27 13:15:00
8:35 AM,38.1,33.6,84,30.13,10.0,Calm,Calm,-,N/A,,Clear,0,2013-10-27 13:35:00
8:55 AM,41.7,35.1,77,30.13,10.0,Calm,Calm,-,N/A,,Clear,0,2013-10-27 13:55:00
9:15 AM,44.6,35.1,69,30.13,10.0,Calm,Calm,-,N/A,,Clear,0,2013-10-27 14:15:00
9:35 AM,46.8,34.9,63,30.13,10.0,Calm,Calm,-,N/A,,Clear,0,2013-10-27 14:35:00
9:55 AM,48.6,34.0,57,30.13,10.0,Calm,Calm,-,N/A,,Clear,0,2013-10-27 14:55:00
10:15 AM,50.2,33.8,53,30.13,10.0,Calm,Calm,-,N/A,,Clear,0,2013-10-27 15:15:00
10:35 AM,52.5,33.1,48,30.14,10.0,Calm,Calm,-,N/A,,Clear,0,2013-10-27 15:35:00
10:55 AM,53.4,31.8,44,30.14,10.0,WSW,3.5,-,N/A,,Clear,240,2013-10-27 15:55:00
11:15 AM,55.0,30.7,40,30.14,10.0,Calm,Calm,-,N/A,,Clear,0,2013-10-27 16:15:00
11:35 AM,55.8,29.5,37,30.14,10.0,Calm,Calm,-,N/A,,Clear,0,2013-10-27 16:35:00
11:55 AM,56.3,30.2,37,30.13,10.0,ENE,3.5,-,N/A,,Clear,60,2013-10-27 16:55:00
12:15 PM,56.7,29.8,36,30.13,10.0,NW,3.5,-,N/A,,Clear,320,2013-10-27 17:15:00
12:35 PM,57.4,29.5,35,30.11,10.0,SW,5.8,-,N/A,,Clear,230,2013-10-27 17:35:00
12:55 PM,58.1,29.5,34,30.10,10.0,West,5.8,-,N/A,,Clear,270,2013-10-27 17:55:00
1:15 PM,58.6,28.6,32,30.09,10.0,NW,5.8,-,N/A,,Clear,310,2013-10-27 18:15:00
1:35 PM,59.0,28.8,32,30.08,10.0,NNW,4.6,-,N/A,,Clear,330,2013-10-27 18:35:00
1:55 PM,59.2,28.8,31,30.07,10.0,West,3.5,-,N/A,,Clear,280,2013-10-27 18:55:00
2:15 PM,60.3,28.8,30,30.07,10.0,WNW,5.8,-,N/A,,Clear,290,2013-10-27 19:15:00
2:35 PM,59.7,28.0,30,30.06,10.0,NW,4.6,-,N/A,,Clear,310,2013-10-27 19:35:00
2:55 PM,60.3,29.1,31,30.06,10.0,South,4.6,-,N/A,,Clear,190,2013-10-27 19:55:00
3:15 PM,61.2,29.7,30,30.05,10.0,SSE,5.8,-,N/A,,Clear,160,2013-10-27 20:15:00
3:35 PM,61.3,29.1,30,30.05,10.0,SSE,4.6,-,N/A,,Clear,160,2013-10-27 20:35:00
3:55 PM,61.5,28.9,29,30.05,10.0,SSW,3.5,-,N/A,,Clear,210,2013-10-27 20:55:00
4:15 PM,61.2,28.6,29,30.04,10.0,Calm,Calm,-,N/A,,Clear,0,2013-10-27 21:15:00
4:35 PM,61.3,28.8,29,30.04,10.0,SW,4.6,-,N/A,,Clear,220,2013-10-27 21:35:00
4:55 PM,60.8,29.7,31,30.05,10.0,Calm,Calm,-,N/A,,Clear,0,2013-10-27 21:55:00
5:15 PM,60.3,28.9,31,30.04,10.0,Calm,Calm,-,N/A,,Clear,0,2013-10-27 22:15:00
5:35 PM,57.9,30.7,36,30.04,10.0,SSW,3.5,-,N/A,,Clear,200,2013-10-27 22:35:00
5:55 PM,55.0,31.8,41,30.05,10.0,South,4.6,-,N/A,,Clear,190,2013-10-27 22:55:00
6:15 PM,53.2,31.3,43,30.05,10.0,South,3.5,-,N/A,,Clear,170,2013-10-27 23:15:00
6:35 PM,48.2,32.9,55,30.05,10.0,Calm,Calm,-,N/A,,Clear,0,2013-10-27 23:35:00
6:55 PM,46.4,33.1,60,30.05,10.0,Calm,Calm,-,N/A,,Clear,0,2013-10-27 23:55:00
7:15 PM,44.6,33.1,64,30.05,10.0,Calm,Calm,-,N/A,,Clear,0,2013-10-28 00:15:00
7:35 PM,42.4,33.1,69,30.05,10.0,Calm,Calm,-,N/A,,Clear,0,2013-10-28 00:35:00
7:55 PM,43.3,34.7,72,30.05,10.0,Calm,Calm,-,N/A,,Clear,0,2013-10-28 00:55:00
8:15 PM,42.1,34.3,74,30.05,10.0,Calm,Calm,-,N/A,,Clear,0,2013-10-28 01:15:00
8:35 PM,41.9,34.9,76,30.05,10.0,Calm,Calm,-,N/A,,Clear,0,2013-10-28 01:35:00
8:55 PM,39.7,33.8,79,30.05,10.0,Calm,Calm,-,N/A,,Clear,0,2013-10-28 01:55:00
9:15 PM,40.1,34.5,80,30.05,10.0,Calm,Calm,-,N/A,,Clear,0,2013-10-28 02:15:00
9:35 PM,39.4,34.5,83,30.05,10.0,Calm,Calm,-,N/A,,Clear,0,2013-10-28 02:35:00
9:55 PM,38.1,33.6,84,30.06,10.0,Calm,Calm,-,N/A,,Clear,0,2013-10-28 02:55:00
10:15 PM,38.5,34.3,85,30.06,10.0,Calm,Calm,-,N/A,,Clear,0,2013-10-28 03:15:00
10:35 PM,38.3,34.0,84,30.06,10.0,Calm,Calm,-,N/A,,Clear,0,2013-10-28 03:35:00
10:55 PM,38.1,34.7,87,30.07,10.0,Calm,Calm,-,N/A,,Clear,0,2013-10-28 03:55:00
11:15 PM,37.0,33.8,88,30.06,10.0,Calm,Calm,-,N/A,,Clear,0,2013-10-28 04:15:00
11:35 PM,37.2,34.0,88,30.07,10.0,Calm,Calm,-,N/A,,Clear,0,2013-10-28 04:35:00
11:55 PM,36.7,33.6,89,30.07,10.0,Calm,Calm,-,N/A,,Clear,0,2013-10-28 04:55:00